[[{"header":{"parameterUnit":"m.s-1","parameterCategory":1,"la1":30.2991,"la2":30.254,"lo1":-89.0895,"lo2":-89.0444,"dy":0.0017,"dx":0.0017,"nx":28,"ny":28,"refTime":"2025-05-24T21:00:00:Z","depth":0,"parameterNumber":2,"parameterNumberName":"U-component_of_WINDS"},"data":[0,0,0,0,0,0,0,0,0,0,0,0,0,0,0,0,0,0,0,0,0,0,0,0,0,0,0,0,0,0,0,0,0,0,0,0,0,0,0,0,0,0,0,0,0,0,0,0,0,0,0,0,0,0,0,0,0,0,0.548,0.5481,0,0.5548,0.5549,0.555,0.5559,0.5558,0.5558,0.5557,0.5626,0.5629,0.5631,0,0,0,0,0,0,0,0,0,0,0,0,0,0.5355,0.5357,0.548,0.5481,0.5481,0.5548,0.5549,0.555,0.5559,0.5558,0.5557,0.5557,0.5625,0.5628,0.5631,0,0,0,0,0,0,0,0,0,0,0,0,0,0.5415,0.5358,0.548,0.5494,0.5496,0.5548,0.5549,0.555,0.5559,0.5558,0.5557,0.5556,0.5624,0.5628,0.5632,0.5674,0,0,0.5643,0.5644,0,0,0,0,0,0,0,0,0.5412,0.5419,0.5491,0.5493,0.5495,0.5544,0.5531,0.5592,0.5559,0.5535,0.5557,0.5556,0.56,0.5605,0.562,0.5677,0.568,0.5643,0.5645,0.5647,0.5648,0,0,0,0,0,0,0,0.5407,0.5417,0.5507,0.5492,0.5495,0.5496,0.5504,0.5542,0.5572,0.5537,0.5538,0.5546,0.5601,0.5617,0.5622,0.5681,0.5643,0.5646,0.5649,0.565,0.5775,0.5776,0,0,0,0,0,0,0.5401,0.5413,0.5505,0.5509,0.545,0.5499,0.5508,0.5529,0.5572,0.5577,0.5547,0.5546,0.5611,0.5618,0.5624,0.5676,0.5647,0.565,0.5653,0.5774,0.5775,0.5776,0,0,0,0,0,0,0.5398,0.5409,0.5502,0.5461,0.5473,0.5503,0.5527,0.5531,0.5547,0.5579,0.5584,0.5558,0.561,0.5619,0.5661,0.5678,0.5652,0.5655,0.5772,0.5774,0.5776,0.578,0,0,0,0,0,0,0.5394,0.5408,0.5425,0.5462,0.5475,0.5538,0.5528,0.5533,0.5554,0.5554,0.5591,0.5596,0.561,0.5656,0.5665,0.5683,0.5658,0.5771,0.5773,0.5775,0.5778,0.5781,0.5784,0,0,0,0,0,0.539,0.5423,0.5425,0.5436,0.5497,0.5539,0.5547,0.5563,0.5555,0.5572,0.5592,0.5595,0.5675,0.566,0.567,0.569,0.577,0.5773,0.5775,0.5777,0.5781,0.5784,0,0,0,0,0,0,0.5387,0.5428,0.5431,0.5477,0.5505,0.5541,0.5562,0.5567,0.5597,0.5596,0.5614,0.5622,0.5663,0.5681,0.5663,0.5732,0.5722,0.5726,0.572,0.5723,0.5726,0.5721,0.5661,0,0,0,0,0,0.5392,0.5423,0.5457,0.5495,0.5508,0.5533,0.5552,0.5562,0.5591,0.5602,0.5626,0.5653,0.5685,0.5705,0.5736,0.5781,0.5788,0.5799,0.5802,0.5804,0.5808,0.5832,0.5837,0.5784,0.5784,0.5784,0,0,0.5402,0.5428,0.5447,0.5495,0.5517,0.5548,0.5543,0.5576,0.5599,0.5607,0.5649,0.5666,0.5698,0.5742,0.5762,0.5758,0.5824,0.5807,0.5809,0.5812,0.5835,0.584,0.5844,0.5786,0.5786,0.5786,0,0,0.5437,0.546,0.5493,0.5516,0.555,0.5566,0.5574,0.5609,0.5621,0.5663,0.5669,0.5696,0.5751,0.5773,0.5791,0.5833,0.5836,0.5842,0.5858,0.5881,0.5885,0.5889,0.5903,0.5908,0.5846,0.5846,0.5846,0,0.5445,0.5493,0.551,0.5543,0.5564,0.5572,0.5606,0.5626,0.5668,0.5682,0.5676,0.5744,0.5766,0.5814,0.5824,0.5839,0.5848,0.5838,0.5883,0.5887,0.5891,0.5905,0.591,0.5847,0.5847,0.5847,0.5847,0,0.5501,0.5534,0.5557,0.5597,0.562,0.5653,0.5675,0.5696,0.5704,0.572,0.5761,0.5788,0.5824,0.5836,0.5845,0.5886,0.5882,0.5879,0.5869,0.5896,0.5909,0.5915,0.5847,0.5847,0.5847,0.5847,0,0,0.5536,0.5585,0.5593,0.5611,0.5649,0.5675,0.5708,0.5743,0.576,0.5789,0.5816,0.5861,0.5859,0.588,0.589,0.5911,0.5941,0.5906,0.5907,0.5911,0.5987,0.5989,0.5995,0.5944,0.5945,0.5946,0.5985,0,0.5575,0.5635,0.565,0.5701,0.5731,0.5739,0.5768,0.5794,0.581,0.5837,0.5854,0.5886,0.5881,0.5893,0.5914,0.5933,0.5957,0.5931,0.5969,0.597,0.5961,0.6002,0.6003,0.6039,0.599,0.5991,0.5991,0,0.5628,0.5657,0.5711,0.5744,0.5757,0.5783,0.5816,0.5842,0.5871,0.5881,0.5904,0.5912,0.5946,0.5934,0.5981,0.5963,0.5979,0.5991,0.5992,0.5996,0.5982,0.6006,0.6051,0.6056,0.6,0.5999,0.5999,0,0.5647,0.57,0.5739,0.5754,0.5794,0.5812,0.5829,0.5857,0.5877,0.5905,0.5918,0.5951,0.5968,0.5992,0.6009,0.5999,0.6054,0.6043,0.6063,0.6062,0.6074,0.6073,0.6121,0.6085,0.6085,0.6085,0.6085,0,0.5689,0.5721,0.5748,0.5772,0.5808,0.5825,0.586,0.5878,0.5902,0.5929,0.5938,0.5963,0.5983,0.6011,0.6024,0.606,0.6068,0.6077,0.608,0.6076,0.6074,0.6087,0.6084,0.6086,0.6086,0.6086,0.6085,0,0.5716,0.5736,0.5779,0.5813,0.5822,0.5847,0.5875,0.5898,0.5914,0.5948,0.5957,0.5982,0.6014,0.6033,0.6074,0.6083,0.6123,0.6125,0.6113,0.6114,0.6132,0.613,0.619,0.6198,0.6157,0.6157,0.6158,0,0.5741,0.5766,0.5802,0.5821,0.5839,0.5869,0.5889,0.5906,0.5927,0.5961,0.598,0.6013,0.6041,0.6092,0.6113,0.6145,0.6147,0.6166,0.6152,0.6147,0.6147,0.6145,0.6147,0.6168,0.6169,0.6169,0.6169,0,0.5783,0.5791,0.582,0.5853,0.5876,0.5903,0.5929,0.5943,0.5965,0.5988,0.6021,0.6042,0.6084,0.6117,0.6149,0.6166,0.6171,0.6173,0.6179,0.6175,0.6167,0.6171,0.6119,0.6172,0.6172,0.6171,0.6171,0.6171,0.5809,0.5832,0.5861,0.5892,0.5914,0.5938,0.5961,0.5979,0.6008,0.6043,0.6052,0.6087,0.6114,0.6159,0.6177,0.6204,0.62,0.6209,0.6212,0.6213,0.6214,0.6163,0.621,0.621,0.621,0.621,0.621,0,0.5851,0.587,0.5899,0.5935,0.596,0.5962,0.5991,0.6011,0.6042,0.6068,0.6094,0.6132,0.6163,0.6187,0.6219,0.6236,0.6239,0.6244,0.6243,0.6246,0.6215,0.6206,0.6241,0.6241,0.6241,0.6241,0.6241,0.6241,0.5875,0.5913,0.5925,0.5972,0.5991,0.6026,0.6042,0.6063,0.6084,0.6126,0.6152,0.6167,0.6192,0.6225,0.6254,0.626,0.6271,0.6275,0.6282,0.6252,0.6249,0.6245,0.6237,0.6278,0.6278,0.6311,0.6311,0.6311]},{"header":{"parameterUnit":"m.s-1","parameterCategory":1,"la1":30.2991,"la2":30.254,"lo1":-89.0895,"lo2":-89.0444,"dy":0.0017,"dx":0.0017,"nx":28,"ny":28,"refTime":"2025-05-24T21:00:00:Z","depth":0,"parameterNumber":3,"parameterNumberName":"V-component_of_WINDS"},"data":[0,0,0,0,0,0,0,0,0,0,0,0,0,0,0,0,0,0,0,0,0,0,0,0,0,0,0,0,0,0,0,0,0,0,0,0,0,0,0,0,0,0,0,0,0,0,0,0,0,0,0,0,0,0,0,0,0,0,4.5859,4.5859,0,4.5906,4.5907,4.5907,4.5837,4.5834,4.5832,4.5829,4.5873,4.5877,4.588,0,0,0,0,0,0,0,0,0,0,0,0,0,4.5701,4.5704,4.5859,4.5859,4.586,4.5906,4.5907,4.5907,4.5837,4.5834,4.5831,4.5828,4.5872,4.5876,4.588,0,0,0,0,0,0,0,0,0,0,0,0,0,4.5761,4.5705,4.5858,4.583,4.5828,4.5906,4.5907,4.5908,4.5838,4.5834,4.583,4.5827,4.5871,4.5876,4.5881,4.5987,0,0,4.5897,4.5899,0,0,0,0,0,0,0,0,4.5758,4.5767,4.5834,4.5832,4.583,4.5862,4.5867,4.5934,4.5839,4.5834,4.5829,4.5825,4.5872,4.5877,4.5894,4.5989,4.5991,4.5897,4.59,4.5902,4.5904,0,0,0,0,0,0,0,4.5753,4.5764,4.5877,4.5835,4.5833,4.5813,4.5818,4.5879,4.5873,4.5834,4.5829,4.5836,4.587,4.5889,4.5894,4.5991,4.5897,4.5902,4.5905,4.5907,4.6175,4.6178,0,0,0,0,0,0,4.5753,4.5761,4.5876,4.5879,4.5784,4.5819,4.5824,4.5855,4.5872,4.5871,4.5839,4.5833,4.5882,4.5888,4.5896,4.6021,4.5902,4.5907,4.591,4.6171,4.6175,4.618,0,0,0,0,0,0,4.575,4.5764,4.5874,4.5819,4.5831,4.5826,4.5861,4.5858,4.5877,4.5876,4.5874,4.586,4.5879,4.5888,4.5965,4.6021,4.591,4.5914,4.6166,4.6172,4.6178,4.6272,0,0,0,0,0,0,4.5746,4.5764,4.5805,4.582,4.5834,4.5944,4.5865,4.5862,4.5887,4.5879,4.5895,4.5894,4.5877,4.5957,4.597,4.6026,4.5918,4.6161,4.6169,4.6176,4.6263,4.628,4.6294,0,0,0,0,0,4.5741,4.5829,4.5808,4.5822,4.5887,4.5948,4.5956,4.5936,4.5892,4.5932,4.5932,4.5893,4.6013,4.5966,4.5979,4.6038,4.6157,4.6166,4.6175,4.6256,4.6277,4.6294,0,0,0,0,0,0,4.5819,4.583,4.5807,4.5903,4.5925,4.5936,4.5987,4.5958,4.5992,4.5983,4.5955,4.5959,4.6041,4.6047,4.5994,4.6141,4.6077,4.6089,4.6135,4.6154,4.6169,4.6166,4.5923,0,0,0,0,0,4.5847,4.5898,4.5904,4.5988,4.6001,4.5992,4.6018,4.6001,4.6022,4.603,4.6035,4.6056,4.6098,4.6126,4.6164,4.6264,4.6266,4.631,4.6326,4.6338,4.6349,4.6402,4.6422,4.6209,4.6209,4.6209,0,0,4.5906,4.5919,4.5952,4.6004,4.6019,4.6071,4.6,4.6057,4.6095,4.6038,4.6112,4.6116,4.6137,4.6225,4.6264,4.6232,4.6408,4.635,4.636,4.6364,4.6413,4.6433,4.6451,4.6215,4.6214,4.6213,0,0,4.604,4.6055,4.6127,4.6144,4.6168,4.6162,4.6179,4.6195,4.6196,4.6269,4.6228,4.6271,4.6344,4.636,4.6378,4.6519,4.6485,4.6532,4.6612,4.6664,4.6681,4.6695,4.6745,4.6764,4.6542,4.6543,4.6543,0,4.611,4.6188,4.6167,4.6228,4.6251,4.6204,4.6275,4.6292,4.6327,4.6344,4.6308,4.6399,4.6409,4.6501,4.6535,4.6551,4.6569,4.653,4.668,4.6695,4.6708,4.6756,4.6774,4.6548,4.6548,4.6547,4.6547,0,4.6272,4.6327,4.6381,4.6419,4.6448,4.6514,4.6501,4.6533,4.6513,4.651,4.6585,4.6596,4.6636,4.6656,4.6637,4.6745,4.6725,4.6685,4.6621,4.6735,4.6779,4.6796,4.6556,4.6554,4.6553,4.6551,0,0,4.6457,4.6483,4.6503,4.6519,4.6543,4.6584,4.6646,4.6687,4.6715,4.674,4.6792,4.6855,4.6818,4.6839,4.682,4.6866,4.6976,4.682,4.682,4.6849,4.7096,4.7126,4.7147,4.6953,4.6957,4.6959,4.7094,0,4.6591,4.6702,4.6685,4.6791,4.6841,4.6797,4.6851,4.687,4.6869,4.6909,4.6906,4.6952,4.69,4.6912,4.6955,4.6954,4.7025,4.6944,4.7,4.7002,4.6997,4.717,4.7202,4.7329,4.7111,4.7114,4.7116,0,4.6763,4.6797,4.6909,4.6925,4.6945,4.6995,4.7031,4.707,4.709,4.7086,4.7109,4.7083,4.7143,4.7078,4.7161,4.7106,4.7127,4.713,4.7134,4.7139,4.7067,4.718,4.7369,4.7388,4.7143,4.7141,4.7139,0,4.6887,4.696,4.7037,4.7052,4.7073,4.7108,4.7118,4.7135,4.7161,4.7191,4.7207,4.7244,4.7264,4.7292,4.7276,4.723,4.7361,4.7295,4.7359,4.7359,4.7389,4.7387,4.7584,4.7402,4.7402,4.7402,4.7401,0,4.7039,4.7109,4.7093,4.714,4.7217,4.7196,4.7272,4.7276,4.7291,4.7337,4.73,4.7343,4.7318,4.7359,4.7346,4.7417,4.7426,4.7423,4.7419,4.7427,4.7427,4.7441,4.7432,4.7407,4.7406,4.7405,4.7404,0,4.7191,4.7183,4.7264,4.7277,4.7281,4.7338,4.7348,4.7391,4.7387,4.7445,4.7457,4.745,4.7497,4.7483,4.7532,4.7523,4.7613,4.7597,4.7607,4.7603,4.7668,4.7662,4.7881,4.7909,4.7709,4.7711,4.7712,0,4.7288,4.7342,4.7361,4.739,4.7403,4.745,4.7477,4.7457,4.7485,4.7513,4.7552,4.7596,4.763,4.7705,4.7703,4.7741,4.7726,4.78,4.7731,4.7738,4.7727,4.7725,4.773,4.7814,4.7816,4.7818,4.7819,0,4.7463,4.7456,4.7497,4.7537,4.757,4.76,4.7626,4.7651,4.7632,4.7666,4.7714,4.7741,4.7792,4.7835,4.7869,4.7877,4.7845,4.7841,4.7858,4.7867,4.7871,4.787,4.7645,4.7836,4.7835,4.7833,4.7832,4.7832,4.7591,4.7636,4.7657,4.7704,4.7721,4.7747,4.7788,4.779,4.783,4.7872,4.7856,4.7911,4.7929,4.7972,4.7984,4.8026,4.7997,4.8022,4.8028,4.8034,4.8043,4.7864,4.8032,4.8031,4.8031,4.803,4.803,0,4.7763,4.7775,4.7818,4.7857,4.7893,4.7861,4.7888,4.792,4.797,4.799,4.8024,4.8079,4.8121,4.8122,4.8161,4.8194,4.818,4.8205,4.8202,4.8204,4.8066,4.8048,4.8215,4.8215,4.8215,4.8215,4.8215,4.8215,4.7858,4.7933,4.7929,4.8012,4.8022,4.8078,4.8096,4.8118,4.8135,4.8198,4.8233,4.8235,4.8247,4.8286,4.8323,4.8322,4.8338,4.8368,4.8362,4.8232,4.8214,4.8197,4.8179,4.8372,4.8372,4.8497,4.8498,4.8499]}]]